Skip Page Navigation
NASA JPL Caltech
NASA Logo - Jet Propulsion Laboratory + View the NASA Portal
+ Near-Earth Object (NEO) Program
Search JPL
JPL Home Earth Solar System Stars & Galaxies Technology
JPL Solar System Dynamics
BODIES ORBITS EPHEMERIDES TOOLS PHYSICAL DATA DISCOVERY FAQ SITE MAP
JPL Small-Body Database Browser
Search: [ help ]  
2434 Bateson (1981 KA)
Classification: Main-belt Asteroid          SPK-ID: 2002434
Ephemeris | Orbit Diagram | Orbital Elements | Physical Parameters | Discovery Circumstances | Close-Approach Data ]

[ hide orbit diagram ]
Orbit Diagram
Note: Make sure you have Java enabled on your browser to see the applet. This applet is provided as a 3D orbit visualization tool. The applet was implemented using 2-body methods, and hence should not be used for determining accurate long-term trajectories (over several years or decades) or planetary encounter circumstances. For accurate long-term ephemerides, please instead use our Horizons system.
Orbit Viewer

Additional Notes: the orbits shown in the applet are color coded. The planets are white lines, and the asteroid/comet is a blue line. The bright white line indicates the portion of the orbit that is above the ecliptic plane, and the darker portion is below the ecliptic plane. Likewise for the asteroid/comet orbit, the light blue indicates the portion above the ecliptic plane, and the dark blue the portion below the ecliptic plane.

Orbit Viewer applet originally written and kindly provided by Osamu Ajiki (AstroArts), and further modified by Ron Baalke (JPL).


Orbital Elements at Epoch 2456400.5 (2013-Apr-18.0) TDB
Reference: JPL 1 (heliocentric ecliptic J2000)
 Element Value Uncertainty (1-sigma)   Units 
e .170475211486232 7.3747e-08  
a 3.080622374125961 2.9388e-08 AU
q 2.55545262338762 2.3306e-07 AU
i 15.6297177954462 1.0159e-05 deg
node 27.37978467576055 2.7081e-05 deg
peri 284.8886107123798 4.3126e-05 deg
M 262.208371877971 3.8738e-05 deg
tp 2456936.982179918711
(2014-Oct-06.48217992)
0.00021551 JED
period 1974.950090101116
5.41
2.826e-05
7.737e-08
d
yr
n .1822830874584624 2.6084e-09 deg/d
Q 3.605792124864302 3.4398e-08 AU
  Orbit Determination Parameters
   # obs. used (total)      906  
   data-arc span      29582 days (80.99 yr)  
   first obs. used      1932-04-24  
   last obs. used      2013-04-21  
   planetary ephem.      DE405  
   SB-pert. ephem.      SB405-CPV-2  
   condition code      0  
   fit RMS      .54904  
   data source      ORB  
   producer      Otto Matic  
   solution date      2013-Apr-29 12:51:46  

Additional Information
 Earth MOID = 1.5974 AU 
 T_jup = 3.149 
[ show covariance matrix ]

Ephemeris | Orbit Diagram | Orbital Elements | Physical Parameters | Discovery Circumstances | Close-Approach Data ]

Physical Parameter Table
Parameter Symbol Value Units Sigma Reference Notes
absolute magnitude H 11.1 mag n/a PDS3 (MPC 17265)  

2434 Bateson           Discovered 1981 May 27 by A. C. Gilmore and P. M. Kilmartin at the Mount John University Observatory.
Named in honor of Frank Maine Bateson, director of the Variable Star section of the Royal Astronomical Society of New Zealand since 1928. He led the site survey of New Zealand that resulted in the establishment of the Mount John University Observatory and was astronomer-in-charge there until 1968. Dr. Bateson and his wife Doris continue to support and encourage astronomy in New Zealand.
NOTE: some special characters may not display properly (any characters within {} are an attempt to place the proper accent above a character)
Reference: MPC 6210Last Updated: 2006-03-21

[ show close-approach data ]
Alternate Designations
 1981 KA = 1932 HC = 1955 VC = 1959 GU = 1966 VP = 1973 AK2 = 1977 TV3 = 1977 VV1 
Ephemeris | Orbit Diagram | Orbital Elements | Physical Parameters | Discovery Circumstances | Close-Approach Data ]
ABOUT SSD CREDITS/AWARDS PRIVACY/COPYRIGHT GLOSSARY LINKS
FirstGov 2013-May-25 04:49 UT
(server date/time)  
NASA Home Page
Site Manager:   Donald K. Yeomans
Webmaster  Alan B. Chamberlin